User: anonymous   Login
Location: Paderno d�Adda
(45.6667°N, 9.4333°E)
Time: 12:35:52
(UTC+00:00)
Language:

Cosmos 1898 Rocket - Orbit

View from above orbital plane
View from above orbital plane
View from above satellite
View from above satellite

Ground track
Ground track

The orbit data is extracted from the following two-line orbital elements,

1 18586U 87098B   20330.92169732 +.00000152 +00000-0 +60162-4 0  9994
2 18586 074.0047 139.0846 0022082 259.1463 100.7205 14.36920891727708
Epoch (UTC): 25 November 2020 22:07:14
Eccentricity: 0.0022082
inclination: 74.0047°
perigee height: 753 km
apogee height: 784 km
right ascension of ascending node: 139.0846°
argument of perigee: 259.1463°
revolutions per day: 14.36920891
mean anomaly at epoch: 100.7205°
orbit number at epoch: 72770

The dashed part of the orbit path shows where the satellite is in the earth's shadow,  

DLR